This is the latest recevied weather packets stored in our database for station/object KA1JKB. If no packets are shown the sender has not sent any weather packets the latest 10 day(s).
| Time | Temp. | Humidity | Pressure | Rain* | Wind** | Luminosity | Snow |
|---|---|---|---|---|---|---|---|
| 1777397281 | 12.78° C | 89% | 1009.2 hPa | 0 mm | - | 215 W/m² | - |
| 1777396978 | 12.22° C | 88% | 1009.5 hPa | 0 mm | - | 206 W/m² | - |
| 1777396674 | 12.78° C | 90% | 1009.3 hPa | 0 mm | - | 201 W/m² | - |
| 1777396371 | 12.78° C | 89% | 1009.2 hPa | 0 mm | - | 193 W/m² | - |
| 1777396068 | 12.78° C | 89% | 1009.1 hPa | 0 mm | - | 261 W/m² | - |
| 1777395763 | 12.78° C | 89% | 1009.2 hPa | 0 mm | - | 372 W/m² | - |
| 1777395458 | 12.78° C | 89% | 1009.3 hPa | 0 mm | - | 310 W/m² | - |
| 1777395156 | 12.78° C | 89% | 1009.2 hPa | 0 mm | - | 230 W/m² | - |
| 1777394853 | 12.78° C | 89% | 1009.1 hPa | 0 mm | - | 240 W/m² | - |
| 1777394549 | 12.78° C | 89% | 1009.3 hPa | 0 mm | - | 193 W/m² | - |
| 1777394246 | 12.78° C | 89% | 1009 hPa | 0 mm | - | 201 W/m² | - |
| 1777393942 | 12.78° C | 89% | 1009.2 hPa | 0 mm | - | 211 W/m² | - |
| 1777393641 | 12.78° C | 89% | 1009.1 hPa | 0 mm | - | 207 W/m² | - |
| 1777393337 | 12.22° C | 89% | 1009 hPa | 0 mm | - | 212 W/m² | - |
| 1777393034 | 12.78° C | 89% | 1009.1 hPa | 0 mm | - | 188 W/m² | - |
| 1777392729 | 12.78° C | 90% | 1009.1 hPa | 0 mm | - | 168 W/m² | - |
| 1777392426 | 12.78° C | 89% | 1008.8 hPa | 0 mm | - | 174 W/m² | - |
| 1777392121 | 12.78° C | 89% | 1008.8 hPa | 0 mm | - | 249 W/m² | - |
| 1777391816 | 12.78° C | 89% | 1008.7 hPa | 0 mm | - | 179 W/m² | - |
| 1777391512 | 12.78° C | 89% | 1008.6 hPa | 0 mm | - | 145 W/m² | - |
| 1777391208 | 12.78° C | 89% | 1008.6 hPa | 0 mm | - | 175 W/m² | - |
| 1777390905 | 12.78° C | 90% | 1008.6 hPa | 0 mm | - | 181 W/m² | - |
| 1777390602 | 12.78° C | 90% | 1008.6 hPa | 0 mm | - | 166 W/m² | - |
| 1777390298 | 12.78° C | 90% | 1008.4 hPa | 0 mm | - | 146 W/m² | - |
| 1777389994 | 12.78° C | 89% | 1008.5 hPa | 0 mm | - | 123 W/m² | - |
* Rain latest hour (hover to see other rain measurements)
** Current wind speed in m/s (hover to see current wind gust speed)